sat.trackr.live / text

‹ back to catalog

CZ-7A R/B

NORAD 69675 · 2026-144B

ROCKET_BODY UNKNOWN UNKNOWN

§ Identity

Operator
Country
PRC
Launch date
2026-06-23
Launch site
WSC
Launch vehicle
Mass (kg)
RCS (m²)

External: N2YO · Heavens-Above · Gunter

§ Orbital elements

Epoch: 2026-07-22T03:50:26.353536Z

Period
522.84 min
Inclination
19.4340°
Eccentricity
0.6979822
Mean motion
2.75416453 rev/d
Perigee alt
114.8 km
Apogee alt
30,126.0 km
Semi-major
21,498.5 km
B*
9.4920e-4
RAAN
311.5809°
Arg perigee
202.9941°
Mean anomaly
97.3887°
Rev number
75

§ Raw data

CZ-7A R/B1 69675U 26144B   26203.16002724  .01103206  10639-4  94920-3 0  99982 69675  19.4340 311.5809 6979822 202.9941  97.3887  2.75416453   754

JSON: /api/v1/satellites/69675 · /tle

For live sub-satellite position, see the globe view (requires WebGL).

§ Visibility from observer

Set your observer location to see the next 7 days of passes ≥ 10°. The values pass through the URL so the page stays shareable.

No JS? Fill the form by hand. The geolocation button needs JavaScript.